This is the latest recevied weather packets stored in our database for station/object N4ASP-13. If no packets are shown the sender has not sent any weather packets the latest 10 day(s).
| Time | Temp. | Humidity | Pressure | Rain* | Wind** | Luminosity | Snow |
|---|---|---|---|---|---|---|---|
| 1778245742 | 12.22° C | 58% | 1017.7 hPa | 0 mm | - | 478 W/m² | - |
| 1778245680 | 12.22° C | 58% | 1017.7 hPa | 0 mm | - | 468 W/m² | - |
| 1778245615 | 12.22° C | 58% | 1017.7 hPa | 0 mm | - | 462 W/m² | - |
| 1778245556 | 12.22° C | 59% | 1017.7 hPa | 0 mm | - | 452 W/m² | - |
| 1778245496 | 12.22° C | 58% | 1017.7 hPa | 0 mm | - | 439 W/m² | - |
| 1778245435 | 12.22° C | 58% | 1017.8 hPa | 0 mm | - | 425 W/m² | - |
| 1778245374 | 12.22° C | 59% | 1017.7 hPa | 0 mm | - | 417 W/m² | - |
| 1778245310 | 12.22° C | 59% | 1017.8 hPa | 0 mm | - | 410 W/m² | - |
| 1778245250 | 12.22° C | 58% | 1017.8 hPa | 0 mm | - | 401 W/m² | - |
| 1778245190 | 12.22° C | 59% | 1017.8 hPa | 0 mm | - | 396 W/m² | - |
| 1778245131 | 12.22° C | 58% | 1017.8 hPa | 0 mm | - | 383 W/m² | - |
| 1778245068 | 12.22° C | 57% | 1017.8 hPa | 0 mm | - | 378 W/m² | - |
| 1778245000 | 12.22° C | 58% | 1017.7 hPa | 0 mm | - | 371 W/m² | - |
| 1778244940 | 12.22° C | 58% | 1017.8 hPa | 0 mm | - | 367 W/m² | - |
| 1778244877 | 12.22° C | 59% | 1017.8 hPa | 0 mm | - | 364 W/m² | - |
| 1778244819 | 12.22° C | 57% | 1017.8 hPa | 0 mm | - | 355 W/m² | - |
| 1778244756 | 12.22° C | 58% | 1017.8 hPa | 0 mm | - | 352 W/m² | - |
| 1778244695 | 12.22° C | 58% | 1017.8 hPa | 0 mm | - | 350 W/m² | - |
| 1778244633 | 12.22° C | 59% | 1017.8 hPa | 0 mm | - | 348 W/m² | - |
| 1778244572 | 12.22° C | 59% | 1017.8 hPa | 0 mm | - | 346 W/m² | - |
| 1778244512 | 12.22° C | 62% | 1017.8 hPa | 0 mm | - | 343 W/m² | - |
| 1778244450 | 11.67° C | 61% | 1017.8 hPa | 0 mm | - | 343 W/m² | - |
| 1778244387 | 11.67° C | 62% | 1017.7 hPa | 0 mm | - | 343 W/m² | - |
| 1778244325 | 11.67° C | 63% | 1017.8 hPa | 0 mm | - | 343 W/m² | - |
| 1778244266 | 11.67° C | 60% | 1017.8 hPa | 0 mm | - | 343 W/m² | - |
* Rain latest hour (hover to see other rain measurements)
** Current wind speed in m/s (hover to see current wind gust speed)